Location: IoMAS Observatory
(54.1780°N, 4.6265°W)
Time: 19:43:07
(UTC+01:00)

ISS - Pass Details

Date: 03 December 2021
Orbit: 413 x 422 km, 51.6° (Epoch: 23 January)

Event Time Altitude Azimuth Distance (km) Brightness Sun altitude
Rises 18:35:33 0° 274° (W) 2,386 1.4 -13.2°
Reaches altitude 10° 18:37:43 10° 268° (W) 1,517 0.3 -13.5°
Maximum altitude 18:40:58 42° 196° (SSW) 613 -2.7 -14.0°
Enters shadow 18:43:37 14° 127° (SE) 1,287 -1.6 -14.3°
